Laurinburg-Maxton, NC

10:07 PM EDT on April 27, 2017 (GMT -0400)
Laurinburg-Maxton

Weather History for KMEB - August, 2012

Change the Weather History Date:

Thursday, August 2, 2012

  Actual Average (KHFF) Record (KHFF)
Temperature  
Mean Temperature 82 °F -  
Max Temperature 95 °F 88 °F 98 °F (2006)
Min Temperature 70 °F 69 °F 65 °F (2014)
Cooling Degree Days 16    
Growing Degree Days 32 (Base 50)    
Moisture  
Dew Point 71 °F    
Average Humidity 80    
Maximum Humidity 100    
Minimum Humidity 46    
Precipitation  
Precipitation 0.03 in - - ()
Sea Level Pressure  
Sea Level Pressure 29.91 in    
Wind  
Wind Speed 5 mph (SSW)    
Max Wind Speed 13 mph    
Max Gust Speed 28 mph    
Visibility 7 miles    
Events Rain , Thunderstorm    
Averages and records for this station are not official NWS values.
T = Trace of Precipitation, MM = Missing Value Source: NWS Daily Summary

Daily Weather History Graph

Daily Weather History Graph

Search for Another Location

Airport or City:

Trip Planner

Search our weather history database for the weather conditions in past years. The results will help you decide how hot, cold, wet, or windy it might be!

Date:

Astronomy

Aug. 02, 2012 Rise Set
Actual Time 6:28 AM EDT 8:18 PM EDT
Civil Twilight 6:00 AM EDT 8:46 PM EDT
Nautical Twilight 5:27 AM EDT 9:19 PM EDT
Astronomical Twilight 4:51 AM EDT 9:54 PM EDT
Moon 8:28 PM EDT (8/2) 6:59 AM EDT (8/2)
Length of Visible Light 14h 45m
Length of Day
13h 50m
Full, 100% of the Moon is Illuminated
Aug 2
Full
Aug 9
Last Quarter
Aug 17
New
Aug 24
First Quarter
Aug 31
Full

Hourly Weather History & Observations

Time (EDT) Temp. Heat Index Dew Point Humidity Pressure Visibility Wind Dir Wind Speed Gust Speed Precip Events Conditions
12:52 AM 73.9 °F - 71.1 °F 91% 29.89 in 7.0 mi SSW 4.6 mph - N/A   Clear
1:52 AM 73.0 °F - 71.1 °F 93% 29.88 in 6.0 mi SW 4.6 mph - N/A   Clear
2:52 AM 73.0 °F - 72.0 °F 96% 29.88 in 5.0 mi West 3.5 mph - N/A   Clear
3:52 AM 73.0 °F - 72.0 °F 96% 29.88 in 4.0 mi WSW 3.5 mph - N/A   Clear
4:52 AM 73.0 °F - 72.0 °F 96% 29.88 in 4.0 mi SW 3.5 mph - N/A   Clear
5:44 AM 71.6 °F - 71.6 °F 100% 29.89 in 2.0 mi Calm Calm - N/A   Clear
5:52 AM 72.0 °F - 71.1 °F 97% 29.88 in 2.0 mi Calm Calm - N/A   Clear
6:13 AM 71.6 °F - 71.6 °F 100% 29.90 in 3.0 mi SE 3.5 mph - N/A   Clear
6:20 AM 71.6 °F - 71.6 °F 100% 29.90 in 2.5 mi Calm Calm - N/A   Clear
6:29 AM 71.6 °F - 69.8 °F 94% 29.90 in 1.2 mi SSE 3.5 mph - N/A   Clear
6:52 AM 71.1 °F - 71.1 °F 100% 29.90 in 1.5 mi South 3.5 mph - N/A   Clear
7:22 AM 73.4 °F - 71.6 °F 94% 29.92 in 2.0 mi Calm Calm - N/A   Clear
7:52 AM 75.0 °F - 73.9 °F 96% 29.93 in 2.5 mi Calm Calm - N/A   Clear
8:10 AM 75.2 °F - 73.4 °F 94% 29.94 in 3.0 mi West 3.5 mph - N/A   Clear
8:52 AM 79.0 °F - 75.0 °F 88% 29.94 in 5.0 mi SW 5.8 mph - N/A   Clear
9:52 AM 84.9 °F 93.3 °F 75.0 °F 72% 29.93 in 9.0 mi SSW 4.6 mph - N/A   Scattered Clouds
10:52 AM 87.1 °F 95.4 °F 73.9 °F 65% 29.94 in 9.0 mi Variable 3.5 mph - N/A   Partly Cloudy
12:52 PM 93.0 °F 100.1 °F 71.1 °F 49% 29.93 in 10.0 mi SW 10.4 mph - N/A   Clear
1:08 PM 93.2 °F 98.8 °F 69.8 °F 46% 29.93 in 10.0 mi SSW 9.2 mph 18.4 mph N/A Thunderstorm Clear
1:23 PM 93.2 °F 98.8 °F 69.8 °F 46% 29.93 in 10.0 mi SSW 9.2 mph - N/A   Clear
1:52 PM 91.9 °F 98.4 °F 71.1 °F 50% 29.91 in 10.0 mi SW 9.2 mph - N/A   Partly Cloudy
2:52 PM 93.9 °F 102.1 °F 72.0 °F 49% 29.89 in 10.0 mi WSW 10.4 mph - N/A   Clear
3:52 PM 90.0 °F 95.4 °F 70.0 °F 52% 29.88 in 10.0 mi South 6.9 mph - N/A   Clear
4:52 PM 84.0 °F 88.4 °F 70.0 °F 63% 29.87 in 10.0 mi East 9.2 mph - N/A   Clear
5:18 PM 82.4 °F 86.3 °F 69.8 °F 66% 29.90 in 10.0 mi East 8.1 mph - N/A Thunderstorm Clear
5:49 PM 78.8 °F - 71.6 °F 78% 29.91 in 10.0 mi North 5.8 mph - N/A   Overcast
5:52 PM 78.1 °F - 71.1 °F 79% 29.90 in 10.0 mi North 6.9 mph - N/A   Overcast
6:52 PM 81.0 °F 84.9 °F 71.1 °F 72% 29.88 in 10.0 mi ESE 4.6 mph - N/A   Clear
7:41 PM 80.6 °F 83.9 °F 69.8 °F 70% 29.91 in 10.0 mi ESE 6.9 mph - N/A Thunderstorm Mostly Cloudy
7:52 PM 80.1 °F 82.9 °F 69.1 °F 69% 29.92 in 10.0 mi SE 8.1 mph - N/A Thunderstorm Mostly Cloudy
8:18 PM 77.0 °F - 66.2 °F 69% 29.97 in 10.0 mi SSW 12.7 mph 27.6 mph N/A Thunderstorm Overcast
8:52 PM 72.0 °F - 69.1 °F 91% 29.96 in 6.0 mi SSE 9.2 mph - 0.03 in Rain Light Rain
9:52 PM 71.1 °F - 66.9 °F 87% 29.98 in 9.0 mi SW 4.6 mph - 0.00 in   Mostly Cloudy
10:52 PM 70.0 °F - 68.0 °F 93% 29.99 in 8.0 mi SSE 8.1 mph - N/A   Scattered Clouds
11:52 PM 70.0 °F - 68.0 °F 93% 29.96 in 8.0 mi Calm Calm - N/A   Clear